Location: Unspecified
(0.0000°N, 0.0000°E)
Time: 00:49:14
(UTC+02:00)

AO-40 - Visible Passes

Search period start: 21 October 2014 00:00
Search period end: 30 October 2014 23:00
Orbit: 1081 x 58739 km, 8.5° (Epoch: 18 October)

Date Brightness Start Highest point End Pass type
(mag) Time Alt. Az. Time Alt. Az. Time Alt. Az.
21 Oct ? 00:00:00 43° E 00:48:31 45° E 02:19:32 10° E visible
21 Oct ? 22:41:12 10° W 00:15:05 48° WSW 04:51:10 10° W visible
22 Oct ? 17:21:05 10° W 23:51:33 86° S 06:22:00 10° W visible
23 Oct ? 18:50:07 10° E 01:22:36 89° S 07:13:05 10° ENE visible
24 Oct ? 20:22:26 10° E 00:20:40 41° E 01:49:42 10° E visible
25 Oct ? 22:11:53 10° W 23:47:16 52° WSW 03:43:14 10° W visible
26 Oct ? 15:53:24 10° W 22:43:07 86° S 05:13:45 10° W visible
27 Oct ? 17:41:23 10° E 00:14:50 90° S 05:45:22 10° ENE visible
28 Oct ? 19:15:25 10° E 22:52:53 37° E 00:19:29 10° E visible
29 Oct ? 20:42:47 10° W 22:19:26 56° WSW 03:35:04 10° W visible
30 Oct ? 15:25:44 10° W 22:34:31 86° S 23:00:00 84° WSW visible
